W5CGC Weather Reports


time (UTC)temp
C
wind
direction
speed
KPH
gust
KPH
rain 1hr
cm
rain 24hr
cm
rain mn
cm
humidity
%
barometer
mb
20260505230034 27 122 0.0 6.4 0.00 0.00 0.00 44 1004.4
20260505224539 28 158 0.0 3.2 0.00 0.00 0.00 42 1003.9
20260505223040 29 0 0.0 4.8 0.00 0.00 0.00 39 1003.9
20260505221532 30 0 0.0 4.8 0.00 0.00 0.00 37 1003.6
20260505220036 31 0 0.0 4.8 0.00 0.00 0.00 35 1003.3
20260505214557 32 0 0.0 4.8 0.00 0.00 0.00 33 1003.6
20260505213036 34 126 0.0 3.2 0.00 0.00 0.00 33 1003.4
20260505211535 34 122 0.0 4.8 0.00 0.00 0.00 30 1003.4
20260505210034 33 316 0.0 4.8 0.00 0.00 0.00 34 1003.5
20260505204531 33 125 1.6 4.8 0.00 0.00 0.00 32 1003.5
20260505203040 33 197 1.6 6.4 0.00 0.00 0.00 34 1003.7
20260505201537 33 112 1.6 8.0 0.00 0.00 0.00 37 1003.9
20260505200034 32 95 1.6 6.4 0.00 0.00 0.00 37 1003.9
20260505194544 32 124 0.0 6.4 0.00 0.00 0.00 40 1004.0
20260505193034 31 119 3.2 14.5 0.00 0.00 0.00 41 1004.2
20260505191538 31 98 1.6 8.0 0.00 0.00 0.00 45 1004.0
20260505190031 30 99 3.2 9.7 0.00 0.00 0.00 45 1004.2
20260505184538 29 105 1.6 9.7 0.00 0.00 0.00 48 1004.3
20260505183038 28 110 1.6 6.4 0.00 0.00 0.00 49 1004.4
20260505181537 28 8 3.2 17.7 0.00 0.00 0.00 49 1004.3
20260505180057 28 114 1.6 8.0 0.00 0.00 0.00 49 1004.5
20260505174556 28 19 3.2 9.7 0.00 0.00 0.00 50 1004.5
20260505173037 27 76 1.6 11.3 0.00 0.00 0.00 51 1004.3
20260505171537 27 72 4.8 17.7 0.00 0.00 0.00 50 1004.4
20260505170037 27 49 3.2 8.0 0.00 0.00 0.00 52 1004.5
20260505164535 26 31 1.6 12.9 0.00 0.00 0.00 54 1004.5
20260505163035 26 354 4.8 17.7 0.00 0.00 0.00 54 1004.4
20260505161537 26 120 4.8 14.5 0.00 0.00 0.00 54 1004.3
20260505153036 25 121 3.2 19.3 0.00 0.00 0.00 58 1004.2
20260505151535 25 21 3.2 11.3 0.00 0.00 0.00 58 1004.0
20260505124538 21 48 0.0 6.4 0.00 0.00 0.00 67 1003.7
20260505123037 21 115 0.0 6.4 0.00 0.00 0.00 68 1003.5
20260505121535 21 107 0.0 17.7 0.00 0.00 0.00 68 1003.4
20260505120036 21 0 0.0 9.7 0.00 0.00 0.00 68 1003.4
20260505114537 21 139 0.0 8.0 0.00 0.00 0.00 67 1003.2
20260505113036 21 0 1.6 8.0 0.00 0.00 0.00 67 1003.0
20260505111537 21 113 0.0 8.0 0.00 0.00 0.00 67 1003.0
20260505101535 21 24 1.6 17.7 0.00 0.00 0.00 66 1002.9
20260505100035 21 89 0.0 16.1 0.00 0.00 0.00 65 1003.1
20260505094534 21 155 1.6 12.9 0.00 0.00 0.00 65 1002.9
20260505093040 21 93 1.6 16.1 0.00 0.00 0.00 64 1003.2
20260505091543 22 32 1.6 24.1 0.00 0.00 0.00 63 1003.3
20260505090034 22 266 4.8 16.1 0.00 0.00 0.00 63 1003.5
20260505084535 22 68 4.8 20.9 0.00 0.00 0.00 62 1003.4
20260505083035 22 108 4.8 20.9 0.00 0.00 0.00 62 1003.6
20260505081539 22 18 6.4 17.7 0.00 0.00 0.00 61 1003.4
20260505080037 22 0 6.4 14.5 0.00 0.00 0.00 60 1003.6
20260505074537 22 82 3.2 14.5 0.00 0.00 0.00 59 1003.6
20260505073034 22 140 4.8 20.9 0.00 0.00 0.00 58 1004.0
20260505071551 23 82 4.8 16.1 0.00 0.00 0.00 57 1004.2
20260505070038 23 27 4.8 20.9 0.00 0.00 0.00 57 1004.4
20260505064536 23 86 3.2 14.5 0.00 0.00 0.00 56 1004.7
20260505063032 23 25 4.8 20.9 0.00 0.00 0.00 55 1004.7
20260505061556 23 63 6.4 16.1 0.00 0.00 0.00 54 1004.8
20260505060035 23 27 3.2 12.9 0.00 0.00 0.00 54 1004.8
20260505054535 23 108 3.2 12.9 0.00 0.00 0.00 54 1004.7
20260505053041 23 94 4.8 14.5 0.00 0.00 0.00 54 1004.7
20260505051555 23 25 3.2 19.3 0.00 0.00 0.00 54 1004.8
20260505041540 23 1 4.8 19.3 0.00 0.00 0.00 54 1005.0
20260505040036 23 20 4.8 27.4 0.00 0.00 0.00 53 1005.2
20260505034534 23 4 4.8 19.3 0.00 0.00 0.00 53 1005.3
20260505033034 23 8 6.4 17.7 0.00 0.00 0.00 53 1005.2
20260505031540 23 283 3.2 17.7 0.00 0.00 0.00 53 1005.1
20260505030038 23 20 1.6 29.0 0.00 0.00 0.00 52 1005.3
20260505024539 23 19 3.2 14.5 0.00 0.00 0.00 52 1005.3
20260505023036 24 166 3.2 16.1 0.00 0.00 0.00 51 1005.3
20260505021534 24 96 4.8 16.1 0.00 0.00 0.00 51 1005.1
20260505020032 24 12 1.6 24.1 0.00 0.00 0.00 51 1005.1
20260505014532 24 292 4.8 16.1 0.00 0.00 0.00 51 1005.2
20260505013032 24 90 3.2 16.1 0.00 0.00 0.00 50 1005.2
20260505011537 24 100 1.6 19.3 0.00 0.00 0.00 50 1005.2
20260505010037 25 89 4.8 19.3 0.00 0.00 0.00 49 1005.3
20260505004535 25 42 6.4 22.5 0.00 0.00 0.00 49 1005.2
20260505003038 25 52 6.4 25.7 0.00 0.00 0.00 48 1005.2
20260505001532 25 39 4.8 19.3 0.00 0.00 0.00 48 1005.3
20260505000038 25 354 8.0 27.4 0.00 0.00 0.00 47 1005.6
20260504234536 26 281 4.8 20.9 0.00 0.00 0.00 46 1005.5
20260504233033 26 129 3.2 22.5 0.00 0.00 0.00 46 1005.7
20260504231541 26 29 8.0 20.9 0.00 0.00 0.00 45 1005.6